Lapse_Rate
0.9 1.0 1.0 0.9 0.8 0.5 0.1 -0.0 -0.3 -0.4 -0.3 -0.3 -0.2 -0.1 0.1 0.2 2.2 4.4 4.1 5.0 4.9 5.3 4.6 3.2 3.5 2.8 3.9 4.5 4.3 3.8 6.5 6.5 6.5 6.5 6.5 6.0 6.4 5.5 5.8 5.6 5.8 5.9 6.2 6.5 5.1
1.0 1.2 1.3 1.1 0.8 0.6 0.4 0.0 -0.3 -0.6 -0.7 -0.5 -0.3 -0.2 -0.1 0.1 3.0 4.0 5.2 5.6 5.4 4.9 3.5 2.6 3.2 3.0 3.7 4.5 3.6 4.8 6.5 6.5 6.4 6.5 6.5 6.1 5.8 5.8 5.7 6.1 5.8 4.3 2.6 2.7 2.3
1.0 1.2 1.0 0.8 0.4 0.3 0.2 0.1 -0.2 -0.6 -0.8 -0.9 -0.8 -0.6 -0.3 -0.0 5.1 5.5 5.5 5.5 5.6 4.7 4.2 3.8 4.0 4.7 4.5 4.6 4.8 6.0 6.5 6.5 6.4 6.4 5.9 5.8 6.4 6.5 6.1 6.5 6.6 6.8 7.0 6.8 4.7
0.9 0.9 0.8 0.4 -0.2 -0.3 -0.3 -0.5 -0.4 -0.5 -0.9 -1.1 -1.0 -0.7 -0.3 1.5 6.5 5.6 5.6 5.4 5.4 5.3 4.7 4.3 3.4 4.5 5.7 6.5 4.8 6.5 6.3 6.3 6.2 5.8 5.4 6.4 6.1 6.4 6.6 6.9 7.7 7.7 7.9 7.6 6.9
0.7 0.7 0.5 0.2 -0.4 -0.4 -0.5 -0.7 -0.3 -0.4 -0.9 -1.1 -0.7 -0.4 1.2 4.0 5.5 6.3 5.6 5.4 5.1 5.0 4.0 4.5 3.6 5.0 6.5 6.1 5.7 6.5 6.4 6.1 4.4 4.2 5.1 5.4 6.1 6.4 6.6 7.1 7.5 7.9 7.0 6.5 6.2
0.5 0.2 -0.1 -0.2 -0.7 -0.7 -0.7 -0.5 -0.3 -0.5 -0.8 -0.7 -0.5 0.0 4.1 5.6 5.8 5.7 5.1 5.5 4.8 4.5 3.9 3.5 4.6 5.0 5.3 6.1 6.4 6.1 6.0 6.1 5.2 5.6 6.0 6.2 6.1 6.0 6.8 6.2 7.3 7.6 7.5 7.4 7.3
0.5 0.0 -0.2 -0.4 -0.7 -0.8 -0.7 -0.5 -0.2 -0.3 -0.4 0.1 0.4 1.1 3.3 5.7 5.2 5.7 5.6 5.3 5.3 5.1 4.6 4.3 4.3 5.4 5.0 6.4 5.5 6.1 6.5 6.5 6.3 6.0 6.2 5.1 6.5 6.5 6.5 6.5 7.5 7.6 7.8 7.6 6.2
0.5 0.2 -0.1 -0.4 -0.7 -0.8 -1.0 -0.6 0.4 0.5 0.4 0.7 0.9 2.4 4.9 5.8 5.6 5.7 5.0 5.3 5.0 5.3 4.8 4.6 4.5 4.2 5.3 5.7 5.4 6.5 6.5 6.5 6.5 6.4 5.8 6.2 6.5 6.4 6.4 7.4 7.3 7.5 7.3 7.6 7.0
0.4 -0.0 -0.3 -0.4 -0.6 0.1 -0.4 0.1 1.4 1.3 1.2 1.2 2.9 3.9 5.9 6.4 5.7 4.8 5.1 5.6 5.0 5.3 5.0 5.3 4.7 3.8 3.9 6.5 6.5 6.5 6.5 6.5 6.5 5.9 6.5 6.5 6.5 6.3 6.6 7.3 7.2 7.4 7.4 7.2 5.5
0.5 0.3 -0.2 -0.6 0.1 1.2 0.3 0.8 2.0 2.1 2.1 2.2 2.8 4.8 5.0 5.2 4.6 4.7 5.0 5.3 5.3 5.2 5.1 4.5 2.0 6.5 6.5 6.5 6.5 6.5 6.5 6.5 6.5 6.5 6.5 6.5 6.5 6.4 6.0 6.9 6.9 7.1 6.8 6.1 6.9
0.7 0.2 0.1 -0.5 1.4 2.8 0.3 0.2 1.4 3.5 1.8 4.9 5.1 5.0 4.8 4.1 3.9 5.5 4.8 5.1 5.3 4.3 6.5 5.1 6.5 6.5 6.5 6.5 6.5 6.5 6.5 6.5 6.5 6.5 6.5 6.5 6.5 6.5 5.9 6.1 6.3 6.2 7.1 7.0 6.1
0.6 0.2 0.1 -0.0 0.7 3.5 -0.2 0.2 2.4 2.4 5.0 3.9 4.0 4.4 4.6 4.7 5.0 5.6 4.8 5.4 5.7 6.5 6.4 6.5 6.5 6.5 6.5 6.5 6.5 6.5 6.5 6.5 6.5 6.5 6.5 6.5 6.5 6.5 6.2 6.3 6.1 5.9 7.0 7.4 4.8
1.0 0.5 -0.3 0.4 0.7 0.0 -0.3 1.0 1.3 1.3 4.5 4.8 5.2 5.0 5.2 5.2 5.3 5.2 4.9 5.1 6.2 6.5 6.5 6.5 6.5 6.4 6.5 6.5 6.5 6.5 6.5 6.5 6.5 6.5 6.5 6.5 6.5 6.5 6.5 6.1 6.4 6.1 6.3 7.0 6.4
2.0 0.8 -0.0 0.9 1.8 0.2 0.7 0.9 1.4 2.0 6.5 6.4 5.8 5.7 5.5 5.7 6.2 5.4 4.8 5.7 6.0 6.5 6.5 6.5 6.4 6.5 6.5 6.5 6.5 6.5 6.5 6.5 6.5 6.5 6.5 6.5 6.5 6.5 6.5 6.5 6.2 5.2 5.4 6.0 6.3
2.4 1.2 0.5 1.7 0.7 1.7 2.6 1.6 1.4 2.0 6.5 6.5 5.7 5.7 4.4 5.8 6.1 5.9 4.7 5.8 6.5 6.5 6.5 6.5 6.5 6.5 6.5 6.5 6.5 6.5 6.5 6.5 6.5 6.5 6.5 6.5 6.5 6.5 6.5 6.5 6.5 5.5 5.3 4.9 5.8
2.7 1.2 0.2 0.7 -0.2 1.3 0.8 1.1 1.7 6.5 6.5 6.5 5.8 6.1 6.0 5.4 5.6 5.1 4.9 4.7 5.6 6.5 6.5 6.5 6.1 6.5 6.5 6.5 6.5 6.5 6.5 6.5 6.5 6.5 6.5 6.5 6.5 6.5 6.5 6.5 6.5 6.1 5.3 5.4 5.1
2.5 1.0 0.3 1.0 2.1 0.3 0.1 1.4 6.5 6.5 6.5 6.5 6.5 6.5 6.5 6.5 6.5 6.3 6.5 6.5 6.5 6.5 6.5 6.5 6.5 6.5 6.3 6.5 6.5 6.5 6.5 6.5 6.5 6.5 6.5 6.5 6.5 6.5 6.5 6.5 6.4 6.3 5.6 5.0 4.2
1.8 0.5 1.1 1.7 1.1 0.2 0.3 6.1 6.5 6.5 6.5 6.5 6.5 6.5 6.5 6.5 6.5 6.5 6.5 6.5 6.5 6.5 6.5 6.5 6.5 6.5 6.5 6.5 6.5 6.5 6.5 6.5 6.5 6.5 6.5 6.5 6.5 6.5 6.5 5.8 5.4 5.6 5.5 5.0 4.3
1.6 -0.8 0.6 1.3 1.2 -0.6 2.8 6.5 6.5 6.5 6.5 6.5 6.5 6.5 6.5 6.5 6.5 6.5 6.5 6.5 6.5 6.5 6.5 6.5 6.5 6.5 6.5 6.5 6.5 6.5 6.5 6.5 6.5 6.5 6.5 6.5 6.5 6.5 6.5 6.5 6.2 5.8 5.2 4.8 4.4
-0.7 -0.1 1.7 1.7 0.8 0.8 5.4 6.5 6.5 6.4 6.4 6.5 6.5 6.5 6.5 6.5 6.5 6.5 6.5 6.5 6.5 6.4 6.1 6.5 6.5 6.5 6.5 6.4 6.4 6.5 6.5 6.5 6.5 6.5 6.5 6.5 6.5 6.5 6.5 6.5 6.5 6.4 5.5 5.0 4.5
0.6 2.8 3.1 1.6 0.6 2.1 6.5 6.5 6.5 6.1 6.2 6.5 6.5 6.5 6.5 6.5 6.5 6.5 6.5 6.5 6.5 6.5 6.3 6.5 6.5 6.5 6.5 6.5 6.5 6.5 6.5 6.5 6.5 6.5 6.5 6.5 6.5 6.5 6.5 6.5 6.5 6.2 5.8 4.8 3.9
1.5 5.5 2.5 1.1 4.3 4.1 6.5 6.5 5.7 6.3 5.9 6.3 6.4 6.5 6.5 6.5 6.5 6.5 6.5 6.5 6.0 6.2 6.5 6.5 6.5 6.5 6.5 6.5 6.5 6.5 6.5 6.5 6.5 6.5 6.5 6.5 6.5 6.5 6.5 6.3 6.0 5.7 5.6 5.0 4.3
2.7 2.5 1.7 2.5 6.5 6.5 6.0 6.5 6.2 6.4 6.4 6.5 6.5 6.5 6.5 6.5 6.5 6.5 6.5 6.3 6.0 6.4 6.5 6.5 6.5 6.5 6.5 6.5 6.5 6.5 6.5 6.5 6.5 6.5 6.5 6.5 6.5 6.5 6.3 6.2 5.5 5.3 5.0 5.2 4.7
2.7 6.5 2.9 0.7 2.3 6.4 6.5 6.5 6.5 5.8 6.3 6.3 6.5 6.4 6.5 6.5 6.5 6.5 6.5 6.4 6.0 6.1 6.0 5.8 6.5 6.5 6.5 6.5 6.5 6.5 6.5 6.5 6.5 6.5 6.5 6.5 6.5 6.5 6.5 6.5 6.5 5.8 5.0 4.9 4.8
2.3 5.1 4.7 6.5 5.7 6.0 6.4 6.5 6.5 6.5 6.1 6.1 6.5 6.5 6.5 6.5 6.5 6.5 6.5 6.5 5.9 5.9 6.2 6.4 6.5 6.5 6.5 6.5 6.5 6.5 6.5 6.5 6.5 6.5 6.5 6.5 6.5 6.5 6.5 6.5 6.6 5.8 5.3 5.0 4.5
3.9 4.2 2.8 4.0 4.8 6.4 6.5 6.5 6.5 6.5 6.5 6.5 6.5 6.5 6.5 6.5 6.5 6.5 6.5 6.5 6.5 6.3 6.5 6.4 6.5 6.5 6.5 6.5 6.5 6.5 6.5 6.5 6.5 6.5 6.5 6.5 6.5 6.6 6.2 5.9 6.7 6.0 6.1 5.8 5.4
3.2 3.3 4.2 5.5 5.6 6.4 6.5 6.5 6.5 6.4 6.1 6.1 6.2 6.5 6.5 6.3 5.2 5.3 5.3 4.8 5.2 6.5 6.5 6.5 6.5 6.5 6.5 6.5 6.5 6.5 6.5 6.5 6.5 6.5 6.5 6.5 6.5 6.3 6.5 6.6 6.7 6.6 5.7 5.2 5.1
Wind_Speed
16 16 17 17 17 17 15 14 13 12 11 10 10 11 12 15 11 2 4 3 6 13 8 6 6 9 5 4 5 3 4 2 2 3 2 5 4 6 1 4 3 5 2 9 16
17 18 19 20 20 19 17 15 14 13 12 11 10 10 11 13 2 5 2 5 9 11 6 8 8 8 5 6 4 5 4 3 3 1 4 5 5 4 6 10 7 20 22 23 22
17 19 19 20 20 19 18 17 16 15 12 10 8 7 8 7 3 3 4 6 9 7 2 0 2 3 6 4 6 1 3 2 2 2 5 6 7 7 7 7 8 19 23 21 22
19 21 22 21 19 18 18 17 15 12 10 7 5 5 5 0 3 3 3 6 10 8 4 5 6 5 5 4 4 4 3 1 3 3 4 3 6 5 11 4 12 13 17 19 18
20 21 22 23 21 20 18 16 13 11 8 5 3 2 1 5 1 2 4 7 4 3 5 4 6 2 4 2 3 3 2 3 7 9 6 6 6 4 12 13 11 14 15 17 19
23 25 25 26 23 20 19 15 10 10 8 3 2 0 2 5 4 3 4 3 4 3 4 5 2 2 4 2 2 2 3 2 5 5 3 6 5 4 10 15 17 17 18 18 17
23 25 28 28 26 21 20 14 8 7 7 4 2 2 7 3 2 3 3 2 2 2 3 2 0 2 3 2 2 2 3 5 3 4 4 6 4 9 13 17 18 18 17 17 16
24 25 27 29 28 23 21 10 2 5 5 3 2 1 3 1 2 4 5 3 4 3 2 1 1 4 3 1 5 4 5 3 3 1 5 5 2 4 10 14 17 18 16 18 19
25 26 27 29 29 27 22 5 2 3 3 3 2 3 2 2 4 3 2 2 3 2 2 2 3 4 6 4 4 6 2 2 4 6 2 5 1 5 8 14 15 15 16 17 19
24 25 27 29 27 29 12 2 3 2 2 1 1 4 5 4 3 4 1 2 2 1 3 6 5 4 4 5 1 3 2 3 3 1 8 4 3 5 7 8 11 13 15 17 19
24 26 26 26 21 23 10 3 6 5 10 3 2 0 4 7 2 1 2 2 2 6 3 4 6 2 3 2 3 2 2 4 4 4 5 2 3 3 7 6 12 14 16 16 16
25 26 28 24 10 16 6 6 2 2 2 1 3 3 2 2 4 3 4 4 4 2 2 5 1 1 1 1 2 3 3 4 3 3 3 5 3 2 5 4 7 9 12 15 17
24 26 28 31 1 6 6 4 3 3 2 5 1 1 3 2 3 5 5 1 4 2 2 3 0 1 3 1 1 2 3 2 3 1 2 6 3 3 3 4 7 8 8 11 15
24 23 25 31 4 2 3 5 3 1 4 8 5 2 1 1 2 1 2 2 4 2 1 2 1 1 1 1 0 4 3 2 3 0 3 3 4 4 4 3 7 9 11 11 14
23 23 22 11 2 3 4 7 1 2 4 4 6 2 5 3 3 4 2 3 1 3 3 2 2 2 1 2 3 6 2 4 2 2 3 1 2 3 2 1 4 7 9 10 11
22 21 19 2 2 1 5 1 2 5 2 5 3 7 6 4 4 5 4 5 1 2 2 2 1 1 2 3 2 5 1 4 3 2 2 3 4 3 3 3 1 3 6 8 10
23 23 7 1 1 3 1 2 5 6 2 6 4 5 2 4 6 4 4 6 4 6 6 6 2 2 1 3 2 7 5 3 3 2 4 2 0 3 3 4 3 4 5 6 7
23 17 2 1 4 3 2 4 6 1 2 2 3 4 3 5 3 7 3 4 4 3 2 3 6 2 2 1 2 1 2 3 3 2 4 1 5 2 3 6 7 6 5 5 6
20 4 2 2 5 1 4 5 2 2 2 4 4 5 4 3 3 7 3 0 1 1 2 3 5 3 3 1 4 1 0 3 2 2 2 2 4 2 5 5 5 6 5 5 5
3 4 3 8 7 3 5 2 1 2 3 1 2 3 4 5 7 6 3 1 0 0 2 2 5 2 4 0 1 2 3 2 2 3 4 3 4 4 8 10 7 6 6 5 5
2 3 2 13 2 4 3 2 0 1 2 2 1 2 0 3 2 3 3 2 1 1 1 2 2 4 2 2 2 1 1 1 1 2 3 3 4 4 7 13 12 7 6 6 5
1 2 3 4 4 1 2 1 1 1 1 1 1 2 1 2 3 3 3 3 0 1 3 1 3 4 8 2 2 2 2 2 2 3 3 2 6 3 3 9 10 8 7 6 6
1 2 3 3 3 2 4 2 0 1 2 1 1 3 1 2 3 4 3 1 1 1 1 2 1 4 8 4 1 3 4 4 3 3 11 5 5 3 3 6 6 11 8 6 6
2 3 4 4 1 2 3 2 3 0 2 1 1 1 1 2 3 4 2 2 1 2 2 1 3 7 7 7 2 5 6 5 6 5 6 16 13 4 6 8 8 8 8 6 5
3 1 1 2 3 2 1 1 2 3 0 0 0 3 3 2 3 4 2 5 4 3 3 3 5 5 9 8 6 14 18 12 12 17 13 16 15 13 15 17 14 10 9 8 5
1 2 2 1 2 0 1 2 2 3 2 3 3 2 3 5 6 5 2 3 6 2 1 1 4 1 5 10 9 11 19 14 16 18 16 17 21 5 3 10 11 13 12 9 6
1 0 3 1 1 3 3 3 3 1 3 3 4 2 5 10 7 9 7 6 7 3 2 2 2 4 6 4 7 12 10 4 3 5 4 8 5 4 5 13 14 12 9 8 7
Wind_Direction
6 0 354 348 345 343 340 336 330 324 319 318 321 330 338 340 332 51 38 299 328 333 341 331 15 2 26 48 49 95 62 80 143 164 245 7 20 3 36 48 43 14 12 312 323
2 357 353 348 345 342 338 336 330 324 320 317 319 327 337 343 8 58 308 329 341 348 21 24 353 355 40 13 22 70 91 176 194 131 88 40 56 0 36 16 346 340 328 336 336
0 355 352 350 347 343 339 337 332 326 321 315 311 320 332 334 84 346 335 333 347 0 356 275 0 34 49 18 354 76 134 351 351 25 91 113 53 30 10 17 347 318 319 326 323
359 355 352 352 351 343 340 340 340 334 327 318 310 322 331 269 112 277 318 327 339 345 21 17 27 50 62 24 337 77 48 36 11 27 57 80 119 90 60 320 309 307 312 314 312
355 353 350 350 349 342 342 344 349 350 349 335 334 358 206 54 99 306 336 343 358 29 44 47 46 81 87 339 357 73 356 37 92 86 93 90 51 129 14 347 326 331 334 323 311
356 353 349 348 348 343 338 342 349 4 8 28 36 299 75 74 298 321 328 7 29 37 30 46 113 125 104 102 82 353 1 133 134 152 116 79 30 58 339 341 348 349 336 339 351
359 354 348 347 345 344 340 341 349 19 42 66 59 315 64 154 333 350 2 41 15 42 57 22 146 101 145 122 301 54 76 27 78 184 144 132 50 10 344 346 349 348 342 349 357
357 353 349 346 341 341 340 341 3 33 58 67 2 350 90 256 331 35 357 23 19 40 85 151 11 108 58 331 25 62 56 36 299 77 9 156 312 314 346 343 359 353 358 357 358
354 352 350 348 341 342 345 29 73 17 29 359 30 68 45 356 25 339 25 15 330 32 9 75 47 60 24 53 18 14 174 206 298 36 133 44 97 314 341 355 360 1 2 0 360
352 350 349 349 347 346 354 43 8 22 321 311 49 42 12 320 310 330 303 36 45 352 29 38 44 56 24 52 245 287 318 270 234 169 54 64 122 327 325 358 356 360 360 5 1
351 348 349 352 355 1 7 26 20 357 39 77 295 184 307 296 279 336 5 24 21 51 43 13 64 10 290 228 259 266 249 252 260 135 102 121 137 296 314 353 8 13 359 360 3
349 348 346 350 353 23 30 67 78 210 21 41 277 291 266 339 345 332 14 48 45 49 23 23 96 217 225 98 279 250 223 267 301 144 104 180 241 236 317 359 10 11 4 359 357
348 349 346 345 36 41 67 52 330 144 81 324 306 314 298 33 336 306 33 2 57 45 28 146 249 78 166 271 353 235 193 251 234 95 53 141 280 196 226 22 13 23 2 18 9
345 349 351 343 71 328 47 326 345 164 76 322 348 10 13 93 18 338 49 57 12 8 33 227 57 64 3 317 110 316 221 216 274 47 234 178 276 226 193 342 29 358 10 1 12
339 346 353 24 273 54 312 335 79 46 54 304 312 294 323 66 303 11 358 18 18 317 76 297 17 360 337 275 172 239 183 239 232 206 347 202 98 249 90 32 11 4 7 2 360
334 340 344 33 45 138 325 2 52 47 279 340 319 355 10 4 339 322 17 40 115 61 351 247 263 193 271 302 213 323 13 39 50 88 338 234 159 253 178 144 124 40 17 9 7
330 336 336 136 307 324 69 70 34 93 347 328 332 3 326 314 333 40 27 15 39 23 5 338 339 303 1 343 29 18 40 345 347 4 235 262 304 268 149 127 128 93 44 26 8
328 333 323 284 328 353 88 49 71 49 328 1 349 330 31 360 336 340 47 24 28 67 67 48 332 4 351 214 270 354 113 137 283 288 295 290 240 266 149 126 122 114 95 53 33
331 345 21 321 345 62 64 48 163 213 267 343 336 47 332 358 19 11 35 200 211 59 43 17 278 303 211 171 137 263 144 216 211 197 262 256 268 170 137 156 153 142 104 76 47
357 355 298 335 346 58 69 149 198 304 334 357 59 38 335 318 14 20 322 265 242 150 132 212 298 248 294 43 265 207 148 351 356 299 275 256 269 249 206 201 184 166 148 119 82
31 19 275 341 68 46 96 217 265 325 351 357 201 303 356 315 323 301 291 324 6 227 152 147 135 287 324 180 207 5 308 158 242 195 266 300 262 203 210 192 184 173 156 139 112
61 8 304 355 50 43 96 281 343 310 14 343 121 217 197 319 287 276 258 231 336 162 330 310 159 277 243 268 237 241 228 149 154 284 249 295 267 341 247 170 159 155 149 140 130
59 274 316 50 93 5 319 323 233 326 275 168 298 228 135 233 305 228 287 274 351 333 254 180 293 320 334 5 318 225 207 169 134 4 246 253 261 46 88 134 155 152 151 148 137
47 10 335 43 52 103 30 341 314 255 287 230 253 32 21 287 238 288 297 310 335 240 168 107 205 196 226 236 211 261 238 208 198 207 272 239 262 211 204 191 170 158 149 143 134
29 358 177 329 353 43 8 302 274 302 235 322 318 225 180 276 292 251 250 322 270 246 162 163 237 206 260 274 266 270 268 259 229 246 244 262 258 269 202 200 183 157 148 147 144
129 117 17 303 322 56 248 253 233 289 238 245 204 177 186 224 210 259 319 203 243 11 145 8 274 315 269 255 272 278 274 262 255 257 251 260 264 240 180 135 154 160 161 160 157
198 130 108 233 120 103 239 243 244 199 285 269 241 282 249 242 244 248 226 223 229 203 184 233 225 348 279 344 302 278 267 213 244 225 212 224 260 146 159 165 159 154 157 156 158